Theta_e
304 298 297 302 304 306 304 302 304 303 301 299 300 303 306 310 308 307 307 309 309 313 317 322 326 330 331 332 332 332 332 334 331 330 329 330 328 331 331 333 333 333 334 333
301 296 304 307 305 304 302 302 301 303 298 297 301 301 304 305 305 305 306 308 308 310 314 318 322 326 329 330 331 332 333 334 334 332 332 332 331 332 333 334 334 333 334 334
298 300 305 304 302 299 300 300 300 298 299 300 299 298 302 306 307 305 303 305 307 308 309 315 320 324 327 328 331 331 333 334 335 335 334 333 333 333 332 333 334 334 333 334
300 304 302 301 299 301 297 302 301 298 296 294 299 291 299 303 306 308 306 305 305 306 308 311 318 322 325 327 330 331 333 334 335 336 334 332 328 328 330 333 335 335 335 334
298 298 299 298 300 302 299 300 298 298 297 296 295 290 295 301 300 304 309 310 310 309 307 308 311 318 323 327 329 330 330 332 334 336 335 334 329 332 333 333 334 335 336 336
296 302 301 301 302 302 299 297 297 296 295 287 292 292 293 296 299 302 305 308 311 311 311 309 310 312 318 324 328 330 329 329 332 334 335 334 332 332 332 333 333 334 335 335
293 296 298 301 298 301 299 294 287 285 285 284 290 291 294 300 302 303 303 304 306 308 310 309 308 308 310 313 320 326 327 327 329 331 333 333 333 333 332 333 333 332 333 333
289 285 294 299 298 295 296 294 287 280 282 286 286 286 293 301 302 301 301 301 306 302 303 305 308 309 308 308 310 312 316 322 327 328 331 333 333 333 333 333 333 333 333 334
289 287 297 298 300 298 295 291 296 287 282 285 290 293 298 300 301 301 301 300 301 303 305 303 304 305 305 307 307 308 308 310 316 323 328 330 332 332 331 333 333 332 333 332
294 283 293 293 297 298 296 299 288 290 281 280 287 288 290 294 297 297 299 300 301 301 302 303 304 304 305 305 306 308 309 308 310 316 322 325 328 328 328 328 327 328 330 328
296 289 286 290 291 291 291 292 293 293 290 285 283 288 297 297 297 297 299 299 301 301 302 302 303 304 305 306 307 308 308 309 310 312 316 320 322 322 325 324 324 324 324 323
295 290 283 287 289 291 295 293 293 287 284 288 287 288 296 297 298 298 298 299 300 301 302 302 303 304 304 306 308 309 310 309 309 310 310 310 312 312 314 320 321 320 317 315
293 288 282 284 288 289 290 293 294 293 291 287 286 289 299 297 295 298 298 300 301 301 302 302 303 303 304 306 308 309 310 310 309 309 309 309 310 311 311 314 311 311 308 305
296 290 287 282 286 289 287 291 293 292 287 288 289 292 293 295 296 297 298 301 301 301 301 302 303 304 304 305 306 308 308 309 307 307 307 307 308 308 308 306 305 303 302 301
295 287 289 288 291 290 288 289 291 290 291 288 291 291 296 298 297 300 302 302 300 300 300 301 303 304 304 304 305 306 307 306 306 306 305 304 301 304 299 298 296 295 295 295
296 286 287 283 289 289 287 289 291 292 293 292 292 291 299 301 301 299 300 300 299 299 300 301 302 303 303 304 304 304 305 304 304 304 302 298 297 295 294 293 290 290 290 290
291 287 287 282 287 287 284 287 289 291 293 293 289 294 297 296 297 298 299 300 299 300 300 301 302 302 303 304 304 303 304 303 302 302 299 293 292 291 290 290 289 288 288 289
287 287 287 279 285 278 289 294 293 291 292 295 295 296 298 298 299 300 301 300 300 300 300 301 302 303 305 305 304 304 303 300 299 296 294 292 290 289 288 288 287 287 287 287
293 289 283 281 282 288 289 288 290 290 289 295 294 295 297 298 298 297 300 300 300 301 300 301 303 303 304 304 303 300 297 296 295 294 292 291 290 288 287 287 286 286 286 286
293 293 289 284 281 279 289 291 296 295 285 295 296 295 296 297 290 294 299 296 296 296 297 297 299 300 302 302 299 295 294 293 293 292 291 290 289 287 288 287 286 286 286 285
284 286 284 284 284 289 293 293 295 284 288 295 296 296 296 294 296 296 295 294 294 293 293 295 297 296 296 294 294 293 292 292 291 289 288 287 287 286 287 286 285 285 285 285
285 284 284 286 283 281 291 291 288 294 296 294 295 297 296 298 294 294 293 292 292 292 291 290 291 289 289 291 292 291 290 288 288 287 286 285 285 285 285 285 285 285 285 284
285 290 287 288 288 293 292 294 298 300 298 294 296 295 297 294 293 293 292 291 290 288 287 287 288 286 286 287 288 288 286 286 285 285 285 285 285 285 285 285 284 284 284 284
288 292 291 289 291 292 291 293 294 295 296 296 297 295 295 293 293 290 289 287 287 286 286 285 286 285 284 285 285 286 285 285 285 285 284 284 284 284 284 285 284 284 284 283
291 289 287 288 288 290 292 293 296 293 292 291 291 291 294 292 289 289 287 286 286 285 284 285 284 284 282 284 283 283 284 285 285 284 283 284 284 284 283 283 284 283 284 285
289 289 287 287 291 293 294 295 294 291 291 291 290 288 288 290 288 287 286 285 285 284 284 283 282 282 281 282 281 281 282 283 283 283 283 283 283 283 282 282 280 282 282 282
Wind_Speed
17 11 18 23 21 14 16 19 18 10 6 6 14 18 17 16 14 14 13 14 12 15 13 15 15 16 15 15 16 17 16 15 11 9 9 9 9 8 7 8 11 10 9 9
14 23 21 20 22 17 11 14 13 4 3 5 13 19 16 15 18 15 16 15 14 14 13 14 17 17 17 17 17 17 17 17 15 10 9 8 8 8 8 8 9 11 9 9
25 16 17 18 19 17 14 16 12 10 4 10 12 23 23 23 21 17 16 14 15 14 15 15 17 18 17 18 18 17 18 18 16 15 9 8 8 7 7 7 8 10 11 10
15 7 20 19 22 19 17 7 8 6 5 7 0 9 12 8 15 21 19 18 17 15 11 14 16 17 19 20 17 18 17 18 16 17 12 15 12 9 10 9 8 9 12 13
11 18 21 23 21 15 9 12 9 7 9 11 14 8 7 11 14 15 16 18 20 18 18 18 16 18 18 16 18 18 18 16 16 17 16 12 15 10 9 9 11 12 10 11
9 10 15 17 14 16 13 11 7 5 6 10 16 14 7 11 8 7 11 15 17 18 16 16 14 11 13 12 14 16 19 19 18 17 18 18 17 15 11 11 9 8 8 9
10 17 6 9 20 14 16 16 6 5 7 8 4 9 13 5 4 10 11 9 8 10 14 15 14 10 11 13 13 12 15 17 18 19 19 20 19 17 16 13 10 10 8 8
16 11 18 16 24 11 21 19 7 9 7 4 1 10 4 8 6 6 9 11 9 7 6 8 9 8 9 8 8 10 11 13 15 16 18 16 17 12 12 13 10 9 9 9
19 5 18 21 12 17 22 20 4 6 2 1 7 8 11 15 13 10 9 7 8 10 9 8 8 9 9 9 10 11 11 10 11 13 12 14 13 14 12 12 10 9 9 7
12 10 13 7 8 14 16 16 8 5 7 7 7 8 9 6 6 2 3 2 3 2 3 5 6 5 4 6 7 9 10 11 11 11 10 10 11 13 13 10 10 7 6 6
14 8 11 9 13 18 11 17 7 7 3 3 3 5 3 9 3 2 2 3 5 4 4 3 3 3 2 3 4 6 8 8 7 6 6 7 7 9 8 5 6 5 6 8
7 6 13 21 2 3 14 16 13 6 6 4 2 9 6 8 5 0 2 2 4 3 4 3 2 3 3 3 3 3 4 5 5 6 6 6 6 7 7 6 6 4 5 5
12 5 12 10 4 3 18 13 17 5 1 7 6 9 8 9 3 5 1 4 5 3 2 1 3 4 5 5 5 5 5 5 6 5 5 5 5 5 5 2 4 4 6 6
8 7 7 13 4 13 12 19 15 12 3 8 16 17 7 8 9 8 6 5 5 6 3 3 3 4 5 6 6 6 6 4 4 5 5 5 5 6 6 5 5 6 6 7
11 6 6 3 6 13 20 24 21 22 29 14 22 20 19 9 9 9 10 12 8 8 5 6 6 6 6 6 6 4 5 5 5 5 5 4 2 3 5 5 5 5 6 6
13 5 6 4 3 10 10 17 24 31 25 22 19 26 11 11 8 11 13 11 9 7 6 5 5 6 7 8 8 8 8 7 6 6 6 5 5 4 4 5 6 7 7 6
14 8 5 6 5 8 0 30 24 26 22 30 22 31 5 2 9 12 11 12 12 8 7 6 7 8 8 8 8 9 9 8 8 7 6 6 6 7 6 5 7 7 7 7
8 5 3 5 4 5 14 16 24 26 23 26 25 24 13 11 10 16 15 14 13 8 7 4 3 5 6 7 7 7 7 8 7 6 6 4 5 5 5 6 6 6 5 7
5 4 5 8 10 3 14 6 18 18 23 23 27 27 19 15 4 19 10 10 12 6 5 4 3 3 4 8 8 7 6 5 6 6 6 7 6 6 6 6 7 5 6 5
7 12 5 7 9 16 2 14 10 10 17 15 21 22 19 12 13 16 3 2 4 5 4 4 5 3 1 4 6 7 7 6 5 4 5 6 6 5 4 5 6 3 4 4
11 13 16 5 7 6 6 9 16 11 5 12 16 19 17 15 17 3 4 3 2 2 4 5 4 3 4 4 6 6 6 6 5 6 6 6 6 5 6 5 2 5 6 7
18 15 11 7 8 15 7 12 19 10 2 3 4 7 9 10 7 4 3 2 2 2 3 4 4 5 4 2 3 5 5 6 6 7 6 6 6 6 6 7 5 6 6 7
10 9 9 12 10 2 11 8 10 3 6 6 5 4 8 8 7 8 6 4 3 3 3 4 5 5 5 4 3 3 3 5 6 7 7 6 6 5 6 7 7 5 5 5
5 8 4 4 9 5 10 2 3 5 3 4 4 6 5 9 9 7 6 4 4 4 4 4 5 5 5 5 5 3 4 5 5 6 6 6 6 6 5 4 5 5 6 5
5 12 10 2 3 5 2 13 8 7 6 6 4 3 7 9 7 6 6 6 5 4 3 4 5 5 5 5 6 5 5 5 5 5 4 4 3 4 4 2 3 3 1 4
8 10 11 8 13 13 13 14 10 10 9 9 8 6 3 5 9 8 7 6 5 5 3 5 6 6 5 6 6 6 5 4 4 4 2 3 3 3 2 3 1 2 4 3
Wind_Direction
187 185 204 188 207 213 181 201 225 199 120 236 236 255 250 240 244 248 251 240 224 224 213 200 201 201 206 206 200 196 201 199 194 196 198 203 210 208 215 216 215 210 206 205
171 215 196 196 200 205 229 215 220 143 138 246 268 265 254 243 241 238 243 248 238 231 211 199 193 193 205 206 207 205 201 199 197 195 201 206 213 217 212 210 208 214 209 202
191 189 199 203 193 200 212 208 221 224 168 230 267 272 257 243 238 230 238 242 250 236 224 206 199 196 193 204 206 209 205 205 201 203 196 201 216 216 213 208 203 209 211 205
218 187 188 189 195 199 201 224 226 181 241 256 195 289 280 271 223 216 223 227 231 232 226 227 199 205 200 199 197 206 211 207 206 196 203 201 208 202 216 210 209 208 207 208
174 170 185 192 195 197 202 164 176 230 255 276 252 262 264 242 244 234 233 227 238 222 216 215 215 203 211 202 197 198 202 210 206 202 205 200 210 213 207 214 205 208 209 212
124 172 180 193 184 184 125 139 144 201 256 257 244 232 252 249 271 237 253 251 238 240 228 222 213 210 211 212 207 198 197 202 203 203 204 207 205 213 206 213 204 206 205 208
137 168 138 185 158 185 171 160 158 205 207 243 29 238 247 306 304 290 269 274 274 261 242 229 220 206 202 203 204 217 210 208 203 203 202 206 208 209 216 208 207 198 208 201
162 184 185 185 176 184 194 183 172 193 199 209 113 235 260 251 265 273 273 277 269 246 249 253 247 212 214 205 204 213 223 227 211 210 213 210 212 210 210 211 205 207 210 208
184 136 168 175 184 163 189 202 140 106 38 316 214 245 252 243 274 291 241 256 278 254 244 234 227 219 215 208 206 211 213 219 233 223 217 221 218 215 215 211 210 211 210 203
183 114 175 153 171 183 189 162 158 207 177 223 223 248 241 174 230 67 190 285 30 350 271 263 236 223 226 236 237 221 215 212 217 221 220 220 216 222 225 220 214 209 204 156
160 123 161 165 206 181 182 182 197 180 207 235 303 252 108 213 164 197 22 2 351 346 327 295 259 204 214 239 227 218 216 217 212 214 215 223 225 226 220 214 214 190 175 174
121 112 155 181 49 294 199 188 186 177 189 246 19 262 148 151 168 205 62 36 16 12 343 332 203 201 189 199 199 214 206 200 202 188 189 205 204 207 216 208 204 173 147 132
158 129 123 170 231 218 204 199 198 150 100 181 172 259 168 155 215 223 249 3 354 3 18 237 221 219 210 195 189 188 183 183 167 164 179 183 198 197 216 181 101 131 144 133
122 162 174 187 131 137 185 188 201 195 187 182 225 231 168 199 220 192 203 292 314 305 307 287 257 232 220 211 199 193 182 168 174 174 189 188 188 189 198 151 161 146 142 135
160 139 152 88 173 158 180 183 188 199 223 206 243 237 238 232 205 232 294 302 295 279 245 252 248 233 221 213 211 203 184 171 176 175 180 179 116 130 118 121 109 99 94 101
185 146 123 73 155 153 173 191 200 212 214 236 248 267 255 242 256 274 284 288 278 284 280 251 245 230 221 210 206 189 190 176 177 178 166 146 151 131 126 117 114 107 100 93
167 134 132 131 123 114 86 209 204 218 212 223 228 237 100 4 241 244 254 274 278 268 277 226 216 222 213 211 203 197 186 162 181 171 155 155 146 144 139 132 129 130 128 124
130 97 84 115 137 162 255 180 210 218 220 228 246 253 241 247 260 262 257 266 273 279 262 267 223 237 194 199 196 194 174 166 166 161 145 142 141 139 134 128 123 108 117 126
127 99 92 139 199 310 251 208 202 193 229 225 233 247 239 248 252 263 252 254 260 282 354 354 348 278 190 189 183 166 152 165 166 172 162 153 154 141 148 140 134 120 129 126
220 202 181 163 183 213 227 169 171 163 261 210 228 240 229 213 232 255 191 34 31 26 8 348 347 8 257 159 137 150 164 161 187 163 149 137 129 128 142 131 122 96 96 83
174 192 204 176 216 244 149 149 142 171 265 185 205 220 216 212 222 89 132 102 81 55 19 351 28 44 43 103 136 162 154 175 133 121 123 118 121 127 121 115 94 128 124 121
172 171 189 193 215 241 145 142 174 183 66 150 212 203 199 195 127 152 128 109 66 48 37 25 77 67 40 68 146 143 153 119 128 128 127 126 133 132 131 128 130 124 133 133
193 200 164 193 206 47 177 168 207 115 167 196 181 167 180 152 182 171 164 150 86 49 39 17 60 76 48 41 53 110 123 130 130 127 129 134 130 133 138 145 147 137 140 145
212 162 177 132 189 180 189 178 254 187 210 126 131 150 164 165 157 149 133 111 83 43 43 27 47 57 58 30 44 64 112 110 116 121 129 133 142 140 142 139 150 156 164 165
167 154 165 198 61 61 256 207 203 145 134 121 111 142 157 142 139 134 124 107 93 78 44 38 47 53 44 32 50 44 62 78 87 91 96 111 112 135 131 87 153 168 136 180
192 163 182 202 158 184 199 199 157 160 165 160 147 146 112 124 128 117 106 101 106 93 69 65 54 56 41 43 41 33 37 64 95 101 117 130 121 129 129 146 136 21 21 200